Location: Heilwood
(40.6210°N, 78.9150°W)
Time: 02:50:34
(UTC-04:00)

BREEZE-M DEB (TANK) - Visible Passes

Search period start: 28 April 2015 00:00
Search period end: 08 May 2015 00:00
Orbit: 325 x 15950 km, 49.5° (Epoch: 26 April)

Date Brightness Start Highest point End Pass type
(mag) Time Alt. Az. Time Alt. Az. Time Alt. Az.
28 Apr 7.0 02:53:50 10° WNW 03:10:14 61° SW 04:47:02 10° SSE visible
28 Apr 5.1 22:04:46 10° WNW 22:09:42 48° NNE 22:29:57 10° E visible
29 Apr 7.1 03:04:47 10° WNW 03:22:15 56° SW 04:57:59 10° S visible
29 Apr 5.2 22:15:32 10° WNW 22:20:48 50° NNE 22:43:53 10° E visible
30 Apr 7.1 03:15:46 10° WNW 03:34:20 52° SW 05:08:15 10° S visible
30 Apr 5.3 22:26:15 10° WNW 22:31:52 52° NNE 22:58:11 10° E visible
01 May 7.2 03:26:45 10° WNW 03:46:31 48° SW 05:17:49 10° S visible
01 May 5.3 22:36:54 10° WNW 22:42:54 56° NNE 23:12:49 10° E visible
02 May 7.2 03:37:46 10° WNW 03:58:49 44° SW 05:26:39 10° S visible
02 May 5.4 22:47:32 10° WNW 22:53:52 59° NNE 23:27:47 10° ESE visible
03 May 7.3 03:48:51 10° WNW 04:11:13 40° SW 05:34:43 10° S visible
03 May 5.4 22:58:06 10° WNW 23:04:49 64° NNE 23:42:59 10° ESE visible
04 May 7.3 04:00:00 10° WNW 04:23:45 36° SW 05:42:00 10° S visible
04 May 5.5 23:08:37 10° WNW 23:15:43 68° NNE 23:58:23 10° ESE visible
05 May 7.4 04:11:16 10° WNW 04:36:25 32° SW 05:48:23 10° SSW visible
05 May 5.5 23:19:05 10° WNW 23:26:35 73° NNE 00:13:50 10° ESE visible
06 May 7.5 04:22:41 10° WNW 04:49:13 28° SW 05:53:50 10° SSW visible
06 May 5.6 23:29:32 10° WNW 23:37:26 78° NNE 00:29:13 10° SE visible
07 May 7.6 04:34:21 10° W 05:02:12 25° SW 05:58:15 10° SSW visible
